• Processing (Info)

  • MPEC 1999-P10 : 1995 UX1

    The following Minor Planet Electronic Circular may be linked-to from your own Web pages, but must not otherwise be redistributed electronically.

    A form allowing access to any MPEC is at the bottom of this page.


    Read MPEC 1999-P09 Read MPEC 1999-P11


    M.P.E.C. 1999-P10                                Issued 1999 Aug. 4, 15:18 UT
    
         The Minor Planet Electronic Circulars contain information on unusual
             minor planets and routine data on comets.  They are published
       on behalf of Commission 20 of the International Astronomical Union by the
              Minor Planet Center, Smithsonian Astrophysical Observatory,
                              Cambridge, MA 02138, U.S.A.
    
                 BMARSDEN@CFA.HARVARD.EDU or GWILLIAMS@CFA.HARVARD.EDU
              URL http://cfa-www.harvard.edu/iau/mpc.html  ISSN 1523-6714
    
                                       1995 UX1
    
                               Revision to MPEC 1995-U02
    
    Observations:
         J95U01X 1C1999 08 01.53425 18 34 27.49 -48 18 47.1                      413
         J95U01X 1C1999 08 01.53773 18 34 27.36 -48 18 46.8                      413
         J95U01X 1C1999 08 02.51370 18 33 17.58 -48 14 05.3                      413
         J95U01X 1C1999 08 02.51656 18 33 17.47 -48 14 05.0                      413
         J95U01X 1C1999 08 02.52122 18 33 17.13 -48 14 03.2                      413
    
    Observer details:
    413 Siding Spring.  Observer R. H. McNaught.  1.0-m f/8 reflector + CCD.
    
    First and last observations above in comparison with prediction:
    Residuals in seconds of arc (or two decimals in degrees), reference and Delta-T
    990801 413 0.06- 0.01+    990802 413 0.06- 0.01+    MPC 27328   +0.17 day
    
    Orbital elements:
    1995 UX1
    Epoch 1999 Aug. 10.0 TT = JDT 2451400.5                 Williams
    M 314.39149              (2000.0)            P               Q
    n   0.22816732     Peri.   15.12895     +0.87236642     -0.48443894
    a   2.6523679      Node    14.40400     +0.41670052     +0.66679172
    e   0.4470300      Incl.   15.27649     +0.25561203     +0.56631061
    P   4.32           H   17.4           G   0.15           U   1
    Residuals in seconds of arc
    951022 118  0.4+  0.8+    951026 587  0.1-  1.7-    951114 587  0.1-  0.1+
    951022 118 (0.4-  3.5+)   951026 587  1.0-  0.6-    951114 587  0.2-  0.0
    951023 118 (0.5-  3.6+)   951027 118  0.3+  0.1-    951118 118  0.4-  0.5-
    951023 118  0.6+  0.6-    951027 118  0.1+  0.0     951118 118  1.0-  0.2-
    951023 118  0.9+  0.6-    951027 658  0.5-  0.2-    951118 118  1.4-  0.2+
    951023 118  0.3+  0.1-    951027 658  1.0-  0.9+    951119 608  0.2+  1.0+
    951023 118  0.4+  0.0     951027 897  0.1+  0.4-    951119 608  0.1+  0.8+
    951023 118  0.5+  0.2-    951027 897  0.6+  0.7-    951121 360  0.3+  0.3+
    951023 118  0.2+  0.1-    951027 118  0.5+  0.1+    951121 360  0.3+  0.4+
    951023 118  0.3+  0.1-    951027 118  0.4+  0.1+    951121 595  0.7+  0.6+
    951024 817  0.0   0.3+    951027 587  0.2+  0.3-    951121 118  0.4+  0.6+
    951024 817  0.1-  0.0     951027 587  0.2+  0.1+    951121 595  0.8+  0.1+
    951024 817  0.1+  0.0     951027 587  0.2+  0.1-    951122 595  0.1+  0.8+
    951024 817  0.2+  0.1-    951027 587  0.1+  0.2-    951122 595  0.4+  0.4+
    951024 118  0.2-  0.2-    951027 587  0.2-  0.1+    951122 118  0.2+  0.4+
    951024 118  0.0   0.2-    951028 658  0.6-  0.3-    951124 587  1.1-  0.7+
    951025 817  0.3-  0.3+    951028 658  0.5-  0.4-    951124 587  0.9-  0.4-
    951025 817  0.2-  0.4+    951028 658  0.5-  0.3-    951124 587  0.3+  1.3+
    951025 817  0.2+  0.0     951028 587  0.1+  0.0     951130 711  0.0   0.5+
    951025 897  0.6+  0.7-    951028 587  0.0   0.4+    951130 711  0.1-  0.4+
    951025 897  0.9+  0.4+    951029 658  0.6-  0.3-    951210 360  0.4+  0.9-
    951025 897  0.8+  0.5+    951029 658  0.7-  0.3-    951210 360  0.3+  1.1-
    951025 360  0.1+  0.1-    951029 658  0.6-  0.2-    951210 360  0.8+  0.8-
    951025 360  0.0   0.2+    951029 413  0.1+  0.1-    951210 587  0.0   0.7-
    951025 360  0.0   0.1+    951029 413  0.1+  0.0     951210 587  0.3-  1.3-
    951025 327  0.1+  0.3+    951030 658  1.0-  0.4+    951217 360  0.1+  0.3+
    951025 327  0.2-  0.1-    951030 658  0.4+  0.0     951217 360  0.4+  0.2-
    951025 327  0.3+  0.4+    951030 413  0.1+  0.0     951217 360  0.2+  0.3-
    951026 360  0.2+  0.0     951030 413  0.1+  0.1+    960112 658  0.7-  0.1-
    951026 360  0.3+  0.1+    951031 658  1.1-  0.3+    960112 658  0.7-  0.0
    951026 360  0.2+  0.0     951031 658  0.9-  0.3+    960112 658  0.5-  0.2-
    951026 327  0.2+  0.0     951031 658  1.0-  0.4+    960112 658  0.5-  0.2-
    951026 327  0.3+  0.1-    951031 413  0.3-  0.3+    960112 658  0.3+  0.0
    951026 327  0.4-  0.5-    951031 413  0.1-  0.3+    960310 711  0.8+  0.8-
    951026 104  0.2-  0.4-    951031 118  0.0   0.0     960310 711  0.2-  0.0
    951026 104  0.1-  0.2-    951031 118  0.4+  0.0     990801 413  0.2-  0.3+
    951026 104  0.0   0.1-    951031 118  0.1+  0.3+    990801 413  1.1+  0.4-
    951026 104  0.2-  0.0     951112 360  0.1+  0.1-    990802 413  0.9-  0.4+
    951026 118  0.1+  0.1-    951112 360  0.3+  0.1+    990802 413  0.1+  0.1-
    951026 118  0.0   0.1-    951112 360  0.3-  0.5+    990802 413  0.1+  0.3+
    
    Ephemeris:
    1995 UX1                 a,e,i = 2.65, 0.45, 15                  q = 1.4667
    Date    TT    R. A. (2000) Decl.     Delta      r     Elong.  Phase     V
    1999 07 31    18 36.36   -48 25.6    1.412    2.292   141.1    16.2    20.8
    1999 08 10    18 25.71   -47 29.8    1.426    2.239   132.5    19.5    20.9
    1999 08 20    18 19.71   -46 12.6    1.456    2.187   123.8    22.6    21.0
    1999 08 30    18 18.70   -44 42.9    1.497    2.134   115.3    25.3    21.1
    1999 09 09    18 22.41   -43 06.8    1.546    2.081   107.3    27.5    21.2
    1999 09 19    18 30.36   -41 27.4    1.599    2.029    99.8    29.2    21.2
    1999 09 29    18 41.96   -39 45.5    1.655    1.976    92.9    30.4    21.3
    1999 10 09    18 56.59   -38 00.0    1.710    1.925    86.4    31.2    21.3
    1999 10 19    19 13.76   -36 09.0    1.763    1.874    80.4    31.6    21.3
    1999 10 29    19 32.97   -34 10.0    1.813    1.824    74.8    31.7    21.3
    1999 11 08    19 53.81   -32 00.7    1.860    1.776    69.6    31.5    21.3
    1999 11 18    20 15.94   -29 39.0    1.903    1.729    64.7    31.1    21.3
    1999 11 28    20 39.02   -27 03.5    1.942    1.685    60.2    30.5    21.3
    
    Gareth V. Williams           (C) Copyright 1999 MPC           M.P.E.C. 1999-P10
    

    Read MPEC 1999-P09 Read MPEC 1999-P11


    MPEC number:

    Enter an MPEC number in one of the following forms:

    • 1997-B01 (the full form)
    • J97B01 (the packed version of the full form)
    • B01 (the abbreviated form)